[[{"header":{"parameterUnit":"m.s-1","parameterCategory":1,"la1":30.2991,"la2":30.254,"lo1":-89.0895,"lo2":-89.0444,"dy":0.0017,"dx":0.0017,"nx":28,"ny":28,"refTime":"2025-12-11T03:00:00:Z","depth":0,"parameterNumber":2,"parameterNumberName":"U-component_of_WINDS"},"data":[0,0,0,0,0,0,0,0,0,0,0,0,0,0,0,0,0,0,0,0,0,0,0,0,0,0,0,0,0,0,0,0,0,0,0,0,0,0,0,0,0,0,0,0,0,0,0,0,0,0,0,0,0,0,0,0,0,0,-0.5473,-0.5472,0,-0.5301,-0.5299,-0.5297,-0.5235,-0.5235,-0.5236,-0.5237,-0.5054,-0.5049,-0.5043,0,0,0,0,0,0,0,0,0,0,0,0,0,-0.5741,-0.5736,-0.5474,-0.5472,-0.5469,-0.5302,-0.5299,-0.5297,-0.5235,-0.5235,-0.5236,-0.5237,-0.5056,-0.5049,-0.5043,0,0,0,0,0,0,0,0,0,0,0,0,0,-0.5602,-0.5735,-0.5474,-0.5418,-0.5412,-0.5302,-0.5299,-0.5296,-0.5235,-0.5235,-0.5236,-0.5237,-0.5058,-0.505,-0.5042,-0.4973,0,0,-0.5017,-0.5013,0,0,0,0,0,0,0,0,-0.561,-0.5592,-0.5429,-0.5422,-0.5414,-0.5291,-0.5326,-0.5188,-0.5234,-0.5302,-0.5237,-0.5238,-0.5131,-0.5117,-0.5083,-0.4965,-0.4957,-0.5016,-0.5011,-0.5008,-0.5005,0,0,0,0,0,0,0,-0.562,-0.5599,-0.5405,-0.5426,-0.5417,-0.5399,-0.5381,-0.53,-0.5213,-0.5296,-0.5291,-0.5272,-0.5128,-0.5091,-0.5078,-0.4954,-0.5016,-0.5009,-0.5004,-0.5001,-0.4767,-0.4766,0,0,0,0,0,0,-0.564,-0.5608,-0.5411,-0.54,-0.5517,-0.5394,-0.5373,-0.5329,-0.5214,-0.5197,-0.5271,-0.5269,-0.5104,-0.5088,-0.5071,-0.4981,-0.5008,-0.5,-0.4995,-0.4768,-0.4767,-0.4765,0,0,0,0,0,0,-0.5646,-0.5623,-0.5418,-0.5503,-0.5475,-0.5388,-0.534,-0.5325,-0.5289,-0.5195,-0.5179,-0.525,-0.5104,-0.5083,-0.4998,-0.4974,-0.4996,-0.4989,-0.477,-0.4768,-0.4766,-0.4801,0,0,0,0,0,0,-0.5654,-0.5625,-0.56,-0.5503,-0.5471,-0.5349,-0.5338,-0.5321,-0.5275,-0.5272,-0.5171,-0.5155,-0.5103,-0.501,-0.499,-0.4963,-0.4983,-0.4772,-0.4769,-0.4767,-0.4802,-0.4801,-0.48,0,0,0,0,0,-0.5663,-0.5617,-0.56,-0.5576,-0.5438,-0.5348,-0.533,-0.5273,-0.5274,-0.5246,-0.5186,-0.5158,-0.498,-0.5002,-0.4978,-0.4949,-0.4773,-0.477,-0.4767,-0.4802,-0.4801,-0.48,0,0,0,0,0,0,-0.5712,-0.5603,-0.5583,-0.5503,-0.5436,-0.5338,-0.5302,-0.5274,-0.5203,-0.5202,-0.5132,-0.511,-0.503,-0.4981,-0.5007,-0.4874,-0.4874,-0.4867,-0.4909,-0.4907,-0.4906,-0.4919,-0.4976,0,0,0,0,0,-0.5714,-0.5652,-0.5559,-0.5498,-0.5465,-0.539,-0.5348,-0.531,-0.5236,-0.5207,-0.5141,-0.5068,-0.4995,-0.4949,-0.4877,-0.4795,-0.477,-0.4762,-0.4762,-0.4761,-0.4754,-0.4704,-0.4698,-0.4755,-0.4755,-0.4756,0,0,-0.5716,-0.5649,-0.5614,-0.5506,-0.5449,-0.5384,-0.5366,-0.5298,-0.5248,-0.5196,-0.5111,-0.506,-0.4974,-0.489,-0.4849,-0.4846,-0.4733,-0.4757,-0.4758,-0.4751,-0.47,-0.4695,-0.469,-0.4753,-0.4754,-0.4754,0,0,-0.5687,-0.5632,-0.5573,-0.5517,-0.5431,-0.5381,-0.5367,-0.5273,-0.5237,-0.5151,-0.511,-0.5048,-0.4926,-0.4865,-0.4819,-0.4765,-0.4735,-0.4743,-0.4737,-0.4689,-0.4684,-0.468,-0.4657,-0.4651,-0.4737,-0.4737,-0.4737,0,-0.57,-0.5603,-0.5546,-0.548,-0.5432,-0.5384,-0.5322,-0.5269,-0.5164,-0.513,-0.513,-0.4973,-0.4912,-0.4811,-0.4797,-0.4762,-0.4741,-0.4753,-0.469,-0.4685,-0.468,-0.4658,-0.465,-0.4739,-0.4738,-0.4738,-0.4738,0,-0.5622,-0.5555,-0.5517,-0.5418,-0.5366,-0.5303,-0.5233,-0.5187,-0.5153,-0.5102,-0.5013,-0.4939,-0.4849,-0.4823,-0.4789,-0.4716,-0.4717,-0.4704,-0.4702,-0.4677,-0.4654,-0.4646,-0.474,-0.474,-0.474,-0.4739,0,0,-0.5619,-0.5488,-0.5475,-0.5428,-0.533,-0.5275,-0.5208,-0.5122,-0.5082,-0.5011,-0.4951,-0.4847,-0.4834,-0.4781,-0.474,-0.4698,-0.4656,-0.4689,-0.4686,-0.4683,-0.4567,-0.4575,-0.4567,-0.4637,-0.4635,-0.4633,-0.4573,0,-0.5575,-0.5455,-0.5401,-0.5304,-0.5239,-0.5191,-0.5131,-0.5063,-0.5013,-0.4948,-0.4892,-0.4819,-0.4809,-0.4776,-0.4732,-0.467,-0.4631,-0.4674,-0.4576,-0.4574,-0.4597,-0.4556,-0.4565,-0.4512,-0.4564,-0.4563,-0.4562,0,-0.5508,-0.5437,-0.5335,-0.5241,-0.5212,-0.516,-0.5075,-0.5016,-0.4936,-0.4902,-0.4842,-0.4802,-0.4726,-0.4731,-0.4624,-0.4655,-0.4611,-0.4575,-0.4571,-0.4558,-0.4565,-0.4539,-0.4494,-0.4485,-0.4548,-0.4549,-0.455,0,-0.5513,-0.5392,-0.5314,-0.5276,-0.5166,-0.513,-0.5082,-0.5003,-0.4954,-0.4879,-0.4846,-0.4763,-0.4717,-0.4653,-0.459,-0.4601,-0.4488,-0.4489,-0.4455,-0.4456,-0.4432,-0.4434,-0.4377,-0.4409,-0.4409,-0.4409,-0.4409,0,-0.5468,-0.5406,-0.5314,-0.5266,-0.5194,-0.5131,-0.5061,-0.5009,-0.4938,-0.4877,-0.483,-0.4773,-0.4695,-0.4627,-0.4578,-0.4495,-0.4475,-0.4443,-0.443,-0.4446,-0.445,-0.4415,-0.4416,-0.4407,-0.4407,-0.4408,-0.4408,0,-0.5461,-0.5397,-0.5309,-0.5211,-0.5185,-0.5136,-0.5051,-0.5001,-0.4949,-0.4871,-0.4849,-0.4766,-0.4683,-0.4615,-0.4507,-0.4473,-0.4386,-0.4372,-0.4413,-0.4406,-0.4375,-0.4378,-0.4292,-0.4276,-0.4321,-0.4321,-0.4321,0,-0.5436,-0.5387,-0.5285,-0.5241,-0.5194,-0.5124,-0.5074,-0.5008,-0.4957,-0.4861,-0.4822,-0.4736,-0.4664,-0.4534,-0.4462,-0.4378,-0.436,-0.4336,-0.4347,-0.4363,-0.4356,-0.4359,-0.4352,-0.4334,-0.4334,-0.4334,-0.4334,0,-0.5397,-0.5367,-0.5298,-0.5216,-0.5158,-0.509,-0.5021,-0.4987,-0.4908,-0.4853,-0.4769,-0.4713,-0.4602,-0.4516,-0.4424,-0.4372,-0.4338,-0.4331,-0.4318,-0.4332,-0.4357,-0.434,-0.4408,-0.4333,-0.4333,-0.4333,-0.4333,-0.4333,-0.5378,-0.5331,-0.5251,-0.5174,-0.5115,-0.5051,-0.4998,-0.4939,-0.4868,-0.4773,-0.4739,-0.4651,-0.4569,-0.4442,-0.4389,-0.4318,-0.4314,-0.4296,-0.4291,-0.4287,-0.4288,-0.4371,-0.4301,-0.4301,-0.4301,-0.4301,-0.4301,0,-0.5334,-0.528,-0.521,-0.5115,-0.5053,-0.5029,-0.495,-0.49,-0.4824,-0.4751,-0.4681,-0.4582,-0.4498,-0.442,-0.4331,-0.4289,-0.4271,-0.4268,-0.4269,-0.4256,-0.4298,-0.4317,-0.4283,-0.4283,-0.4283,-0.4283,-0.4283,-0.4283,-0.5304,-0.5223,-0.5183,-0.5071,-0.5016,-0.4931,-0.4888,-0.4827,-0.4768,-0.466,-0.4591,-0.4541,-0.4464,-0.4369,-0.429,-0.4269,-0.4237,-0.4237,-0.4211,-0.4251,-0.4254,-0.4256,-0.4273,-0.4231,-0.4231,-0.4175,-0.4174,-0.4174]},{"header":{"parameterUnit":"m.s-1","parameterCategory":1,"la1":30.2991,"la2":30.254,"lo1":-89.0895,"lo2":-89.0444,"dy":0.0017,"dx":0.0017,"nx":28,"ny":28,"refTime":"2025-12-11T03:00:00:Z","depth":0,"parameterNumber":3,"parameterNumberName":"V-component_of_WINDS"},"data":[0,0,0,0,0,0,0,0,0,0,0,0,0,0,0,0,0,0,0,0,0,0,0,0,0,0,0,0,0,0,0,0,0,0,0,0,0,0,0,0,0,0,0,0,0,0,0,0,0,0,0,0,0,0,0,0,0,0,1.2428,1.2428,0,1.2491,1.2492,1.2493,1.2533,1.2533,1.2533,1.2534,1.2599,1.2601,1.2602,0,0,0,0,0,0,0,0,0,0,0,0,0,1.2342,1.2343,1.2427,1.2428,1.2429,1.2491,1.2492,1.2493,1.2533,1.2533,1.2534,1.2534,1.2599,1.2601,1.2602,0,0,0,0,0,0,0,0,0,0,0,0,0,1.2389,1.2343,1.2427,1.2457,1.246,1.2491,1.2492,1.2493,1.2533,1.2533,1.2534,1.2534,1.2598,1.26,1.2603,1.261,0,0,1.261,1.2611,0,0,0,0,0,0,0,0,1.2387,1.2393,1.2451,1.2455,1.2458,1.2505,1.2486,1.2532,1.2533,1.2505,1.2534,1.2534,1.2567,1.2572,1.2584,1.2613,1.2616,1.261,1.2611,1.2612,1.2613,0,0,0,0,0,0,0,1.2383,1.239,1.2453,1.2452,1.2456,1.2467,1.2474,1.2495,1.2534,1.2508,1.2511,1.2518,1.2569,1.2581,1.2585,1.2617,1.261,1.2612,1.2613,1.2614,1.2657,1.2657,0,0,0,0,0,0,1.2375,1.2387,1.2451,1.2455,1.2423,1.2468,1.2476,1.2489,1.2533,1.2541,1.2517,1.2519,1.2577,1.2583,1.2588,1.2601,1.2612,1.2614,1.2616,1.2657,1.2657,1.2657,0,0,0,0,0,0,1.2373,1.2381,1.2448,1.2422,1.2431,1.2469,1.2484,1.249,1.2502,1.2541,1.2548,1.2522,1.2578,1.2585,1.2604,1.2603,1.2615,1.2617,1.2657,1.2657,1.2657,1.2625,0,0,0,0,0,0,1.2371,1.238,1.2382,1.2421,1.2432,1.2463,1.2484,1.2491,1.2506,1.2509,1.2547,1.2554,1.2578,1.2601,1.2607,1.2607,1.2619,1.2658,1.2657,1.2657,1.2626,1.2624,1.2621,0,0,0,0,0,1.2367,1.2371,1.2382,1.239,1.2437,1.2463,1.247,1.2498,1.2506,1.2509,1.2534,1.2553,1.2602,1.2602,1.261,1.261,1.2658,1.2657,1.2657,1.2628,1.2624,1.2621,0,0,0,0,0,0,1.2331,1.2376,1.239,1.2406,1.243,1.247,1.2475,1.2493,1.2516,1.2518,1.2552,1.256,1.2577,1.2595,1.2595,1.262,1.2632,1.2633,1.2608,1.2605,1.2602,1.2598,1.2621,0,0,0,0,0,1.2324,1.2342,1.2381,1.2391,1.2403,1.2437,1.2449,1.2469,1.2496,1.2506,1.2533,1.2558,1.258,1.2593,1.2615,1.2629,1.2638,1.2633,1.263,1.2628,1.2629,1.2639,1.2637,1.2655,1.2655,1.2655,0,0,1.2311,1.2339,1.2348,1.2384,1.2406,1.2424,1.2445,1.2463,1.2477,1.2509,1.253,1.255,1.2581,1.2598,1.2607,1.2614,1.2626,1.2627,1.2625,1.2627,1.2638,1.2637,1.2635,1.2654,1.2655,1.2655,0,0,1.2298,1.2319,1.2331,1.2352,1.2384,1.2407,1.241,1.2447,1.2462,1.2483,1.2508,1.2525,1.2561,1.2582,1.2598,1.2592,1.2611,1.2598,1.2586,1.2595,1.2594,1.2593,1.2592,1.2591,1.2599,1.2599,1.2599,0,1.2278,1.2306,1.2335,1.2352,1.2368,1.2398,1.241,1.2429,1.2467,1.2477,1.2485,1.2531,1.2554,1.2577,1.2576,1.2587,1.2592,1.2595,1.2592,1.2591,1.259,1.259,1.259,1.2597,1.2597,1.2597,1.2598,0,1.228,1.2299,1.2305,1.2341,1.2357,1.2371,1.2404,1.2417,1.2435,1.2457,1.2479,1.2507,1.2536,1.2543,1.256,1.2569,1.2573,1.2585,1.2598,1.2587,1.2587,1.2587,1.2595,1.2595,1.2596,1.2596,0,0,1.2246,1.2298,1.2299,1.2317,1.2354,1.237,1.2386,1.2414,1.2425,1.245,1.2465,1.2495,1.2507,1.2525,1.2545,1.2553,1.2549,1.2565,1.2567,1.2562,1.2562,1.2553,1.2552,1.2561,1.2561,1.2561,1.256,0,1.2238,1.2269,1.2296,1.2317,1.2335,1.2364,1.2379,1.2404,1.2425,1.2444,1.2467,1.2488,1.2502,1.2513,1.2522,1.2548,1.255,1.2548,1.2576,1.2577,1.2569,1.2552,1.2543,1.254,1.256,1.256,1.256,0,1.2234,1.2258,1.2281,1.2318,1.2327,1.2339,1.2368,1.2385,1.2414,1.2429,1.2449,1.247,1.2489,1.25,1.2527,1.2525,1.2538,1.2552,1.2553,1.2558,1.2568,1.2558,1.254,1.254,1.256,1.256,1.256,0,1.2208,1.2246,1.2265,1.2278,1.2322,1.233,1.2348,1.2378,1.2393,1.2418,1.2429,1.2455,1.247,1.249,1.2519,1.2523,1.2543,1.2556,1.2557,1.2556,1.2561,1.256,1.2546,1.2567,1.2567,1.2567,1.2567,0,1.2198,1.2211,1.2254,1.2266,1.2281,1.2313,1.2327,1.2348,1.2375,1.2391,1.2418,1.2433,1.2469,1.2488,1.251,1.253,1.2536,1.2549,1.2555,1.2548,1.2546,1.2558,1.2559,1.2567,1.2567,1.2567,1.2567,0,1.2172,1.2201,1.2224,1.2263,1.2273,1.2283,1.2317,1.233,1.2352,1.2373,1.238,1.2415,1.244,1.247,1.2504,1.2519,1.2537,1.2545,1.2527,1.2531,1.2531,1.2531,1.2524,1.2525,1.2544,1.2544,1.2544,0,1.2164,1.2175,1.2216,1.2229,1.2246,1.2267,1.2283,1.2314,1.233,1.2364,1.2373,1.24,1.2423,1.2461,1.249,1.2516,1.2526,1.2522,1.253,1.2522,1.2527,1.2527,1.2529,1.252,1.2519,1.2519,1.2519,0,1.2148,1.2162,1.2184,1.2211,1.223,1.2253,1.2277,1.2286,1.2322,1.2339,1.2364,1.2382,1.2417,1.2444,1.2474,1.2493,1.2512,1.2516,1.2518,1.2511,1.25,1.2507,1.2522,1.2516,1.2516,1.2517,1.2517,1.2517,1.2132,1.2143,1.2174,1.2198,1.2219,1.2241,1.2256,1.228,1.2302,1.2333,1.235,1.2375,1.2405,1.2448,1.2466,1.2487,1.2494,1.2496,1.2497,1.2497,1.2496,1.2496,1.2492,1.2492,1.2492,1.2493,1.2493,0,1.2118,1.2139,1.2161,1.2194,1.2213,1.2229,1.2257,1.2272,1.2294,1.232,1.2342,1.2372,1.2398,1.2429,1.2457,1.2467,1.2477,1.2473,1.2474,1.2478,1.2487,1.2483,1.2465,1.2465,1.2465,1.2465,1.2465,1.2465,1.2113,1.2134,1.2151,1.2183,1.2204,1.2229,1.2244,1.2265,1.2286,1.2318,1.2339,1.2359,1.2388,1.2418,1.2443,1.2451,1.2461,1.2455,1.2466,1.2475,1.2477,1.2479,1.2476,1.2457,1.2457,1.2456,1.2456,1.2456]}]]